Location: Brantford
(43.1330°N, 80.2670°W)
Time: 19:39:58
(UTC-05:00)

Transit 4A - Visible Passes

Search period start: 12 November 2019 00:00
Search period end: 22 November 2019 00:00
Orbit: 868 x 976 km, 66.8° (Epoch: 12 November)

Date Brightness Start Highest point End Pass type
(mag) Time Alt. Az. Time Alt. Az. Time Alt. Az.
12 Nov 10.1 06:12:20 10° N 06:14:45 12° NNE 06:17:09 10° NE visible
13 Nov 10.0 06:21:02 10° N 06:24:37 16° NE 06:28:08 10° ENE visible
14 Nov 9.8 06:29:58 10° N 06:34:22 21° NE 06:38:43 10° E visible
15 Nov 9.5 06:39:00 10° NNW 06:44:03 28° NE 06:48:59 10° ESE visible
16 Nov 10.3 05:04:11 10° NNE 05:05:24 11° NNE 05:06:37 10° NE visible
17 Nov 10.2 05:12:27 10° N 05:15:19 14° NNE 05:18:09 10° ENE visible
18 Nov 10.0 05:21:15 10° N 05:25:08 18° NE 05:28:58 10° ENE visible
19 Nov 9.7 05:30:14 10° N 05:34:53 23° NE 05:39:26 10° E visible
20 Nov 9.3 05:39:18 10° NNW 05:44:31 31° NE 05:49:37 10° ESE visible
21 Nov 10.3 04:04:08 10° N 04:05:59 11° NNE 04:07:55 10° NE visible
21 Nov 8.8 05:48:27 10° NNW 05:54:03 43° NE 05:59:34 10° ESE visible
